CW2732 Elche ES current weather conditions

sailwx.info

Wind from 333

Air temperature 23.3° C
Dewpoint 16.1° C

Last reported at 2018-Jun-24 01:04 UTC.
Time now 2018-Jun-24 01:33 UTC

Location: N 38°15' W 000°42'.
View on Google Maps.

See reports from other nearby stations

  
Tides and Currents Weather Stations Pressure Air Temp Water Temp Dewpoint Dewpoint Depression Visibility Wind Speed Wind Dir Waves Ship Positions
date/time (UTC)wind fromknots sea level pressurealtimeterstation pressurevisibilityair tempwater tempwave heightnotes
2018-Jun-24 01:04 333 23.3
2018-Jun-24 00:54 326 23.3
2018-Jun-24 00:44 346 23.3
2018-Jun-24 00:33 347 0 gusting 5 23.3
2018-Jun-24 00:23 344 23.3
2018-Jun-24 00:13 348 23.3
2018-Jun-24 00:03 043 23.3
2018-Jun-23 23:54 056 23.3
2018-Jun-23 23:44 057 23.3
2018-Jun-23 23:34 058 23.9
2018-Jun-23 23:24 061 23.9
2018-Jun-23 23:14 061 23.9
2018-Jun-23 23:03 062 23.9
2018-Jun-23 22:54 061 23.9
2018-Jun-23 22:43 064 0 gusting 3 23.9
2018-Jun-23 22:34 063 23.9
2018-Jun-23 22:24 065 23.9
2018-Jun-23 22:14 065 23.9
2018-Jun-23 22:04 064 23.9
2018-Jun-23 21:53 065 23.9
2018-Jun-23 21:43 067 23.9
2018-Jun-23 21:33 065 24.4
2018-Jun-23 21:24 064 24.4
2018-Jun-23 21:13 066 24.4
2018-Jun-23 21:04 081 0 gusting 3 24.4
2018-Jun-23 20:54 082 24.4
2018-Jun-23 20:44 082 24.4
2018-Jun-23 20:34 082 24.4
2018-Jun-23 20:24 083 24.4
2018-Jun-23 20:14 083 24.4
2018-Jun-23 20:04 082 4 gusting 5 25.0
2018-Jun-23 19:53 082 1 gusting 6 25.0
2018-Jun-23 19:43 082 25.0
2018-Jun-23 19:33 084 25.6
2018-Jun-23 19:23 092 0 gusting 6 25.6
2018-Jun-23 19:13 090 25.6
2018-Jun-23 19:03 088 3 gusting 6 25.6
2018-Jun-23 18:54 087 26.1
2018-Jun-23 18:44 087 26.1
2018-Jun-23 18:34 084 0 gusting 6 26.1
2018-Jun-23 18:24 116 2 gusting 6 26.7
2018-Jun-23 18:14 113 26.7
2018-Jun-23 18:04 119 0 gusting 7 26.7
2018-Jun-23 17:53 088 4 gusting 8 27.2
2018-Jun-23 17:43 100 3 gusting 7 27.2
2018-Jun-23 17:33 105 2 gusting 7 27.2
2018-Jun-23 17:23 079 3 gusting 9 27.2
2018-Jun-23 17:14 082 6 gusting 9 27.8
2018-Jun-23 17:04 107 1 gusting 9 27.8
2018-Jun-23 16:53 096 3 gusting 7 28.3
2018-Jun-23 16:44 113 5 gusting 9 28.9
2018-Jun-23 16:33 157 2 gusting 9 28.3
2018-Jun-23 16:23 150 2 gusting 8 28.3
2018-Jun-23 16:14 080 2 gusting 9 28.9
2018-Jun-23 16:03 114 2 gusting 6 28.9
2018-Jun-23 15:54 128 4 gusting 11 28.9
2018-Jun-23 15:44 098 4 gusting 9 28.9
2018-Jun-23 15:34 119 2 gusting 12 28.9
2018-Jun-23 15:23 146 5 gusting 13 29.4
2018-Jun-23 15:14 136 2 gusting 9 29.4
2018-Jun-23 15:03 148 1 gusting 10 29.4
2018-Jun-23 14:54 096 5 gusting 12 29.4
2018-Jun-23 14:44 137 5 gusting 11 30.0
2018-Jun-23 14:34 115 1 gusting 10 30.0
2018-Jun-23 14:24 092 4 gusting 10 29.4
2018-Jun-23 14:14 129 6 gusting 11 30.0
2018-Jun-23 14:03 126 4 gusting 12 30.0
2018-Jun-23 13:54 117 6 gusting 14 30.0
2018-Jun-23 13:43 091 3 gusting 11 30.0
2018-Jun-23 13:34 136 2 gusting 10 30.6
2018-Jun-23 13:24 133 5 gusting 11 30.6
2018-Jun-23 13:14 136 4 gusting 13 30.0
2018-Jun-23 13:04 157 4 gusting 11 30.6
2018-Jun-23 12:53 141 3 gusting 9 30.6
2018-Jun-23 12:43 155 2 gusting 10 30.6
2018-Jun-23 12:33 109 6 gusting 9 30.6
2018-Jun-23 12:24 125 3 gusting 11 30.0
2018-Jun-23 12:13 090 5 gusting 12 29.4
2018-Jun-23 12:04 091 4 gusting 9 29.4
2018-Jun-23 11:54 114 6 gusting 9 29.4
2018-Jun-23 11:43 092 6 gusting 11 30.0
2018-Jun-23 11:33 060 2 gusting 10 29.4
2018-Jun-23 11:23 121 6 gusting 10 28.9
2018-Jun-23 11:13 087 6 gusting 10 28.9
2018-Jun-23 11:03 057 3 gusting 12 28.9
2018-Jun-23 10:54 128 4 gusting 9 29.4
2018-Jun-23 10:44 095 5 gusting 8 29.4
2018-Jun-23 10:34 088 5 gusting 11 29.4
2018-Jun-23 10:24 109 2 gusting 10 29.4
2018-Jun-23 10:14 077 5 gusting 9 28.9
2018-Jun-23 10:03 090 1 gusting 8 28.9
2018-Jun-23 09:53 086 1 gusting 9 28.9
2018-Jun-23 09:43 096 3 gusting 11 28.9
2018-Jun-23 09:33 088 0 gusting 7 28.3
2018-Jun-23 09:24 091 3 gusting 9 28.9
2018-Jun-23 09:14 082 5 gusting 9 28.9
2018-Jun-23 09:04 105 3 gusting 8 28.9
2018-Jun-23 08:53 057 0 gusting 9 28.3
2018-Jun-23 08:43 076 5 gusting 8 28.3
2018-Jun-23 08:33 068 4 gusting 7 28.3
2018-Jun-23 08:23 080 1 gusting 7 28.3
2018-Jun-23 08:13 088 4 gusting 8 28.3
2018-Jun-23 08:04 086 1 gusting 6 28.3
2018-Jun-23 07:54 071 0 gusting 6 27.8
2018-Jun-23 07:44 048 0 gusting 4 27.8
2018-Jun-23 07:33 046 0 gusting 5 27.8
2018-Jun-23 07:23 045 0 gusting 6 27.8
2018-Jun-23 07:13 057 1 gusting 4 27.2
2018-Jun-23 07:03 010 26.7
2018-Jun-23 06:54 360 0 gusting 2 26.7
2018-Jun-23 06:44 351 26.1
2018-Jun-23 06:34 355 26.1
2018-Jun-23 06:24 355 25.6
2018-Jun-23 06:14 349 25.0
2018-Jun-23 06:04 334 1 gusting 9 24.4
2018-Jun-23 05:53 032 0 gusting 6 23.9
2018-Jun-23 05:43 310 23.9
2018-Jun-23 05:33 309 23.3
2018-Jun-23 05:23 310 23.3
2018-Jun-23 05:13 307 23.3
2018-Jun-23 05:04 323 22.8
2018-Jun-23 04:53 322 22.8
2018-Jun-23 04:44 321 1 gusting 5 22.8
2018-Jun-23 04:33 306 22.8
2018-Jun-23 04:23 306 22.8
2018-Jun-23 04:13 314 22.8
2018-Jun-23 04:03 314 22.8
2018-Jun-23 03:53 315 22.8
2018-Jun-23 03:44 314 23.3
2018-Jun-23 03:34 314 23.3
2018-Jun-23 03:24 315 23.3
2018-Jun-23 03:14 314 23.3
2018-Jun-23 03:03 315 23.3
2018-Jun-23 02:53 315 23.3
2018-Jun-23 02:43 315 23.3
2018-Jun-23 02:34 315 23.3
2018-Jun-23 02:24 315 23.3
2018-Jun-23 02:14 314 23.3
2018-Jun-23 02:04 314 23.3
2018-Jun-23 01:53 315 0 gusting 4 23.9
2018-Jun-23 01:43 313 1 gusting 4 23.9
2018-Jun-23 01:33 339 23.9
2018-Jun-23 01:23 333 23.9
2018-Jun-23 01:13 331 0 gusting 4 23.9
2018-Jun-23 01:04 330 0 gusting 5 23.9
2018-Jun-23 00:54 328 23.9
2018-Jun-23 00:44 329 23.9
2018-Jun-23 00:33 329 23.9
2018-Jun-23 00:23 348 23.9
2018-Jun-23 00:13 091 23.9
2018-Jun-23 00:03 090 23.9
2018-Jun-22 23:53 091 23.9
2018-Jun-22 23:43 090 23.9
2018-Jun-22 23:33 090 24.4
2018-Jun-22 23:23 091 24.4
2018-Jun-22 23:13 091 24.4
2018-Jun-22 23:03 091 24.4
2018-Jun-22 22:54 090 24.4
2018-Jun-22 22:43 090 25.0
2018-Jun-22 22:34 090 25.0
2018-Jun-22 22:24 090 25.0
2018-Jun-22 22:14 090 25.0
2018-Jun-22 22:03 090 25.0
2018-Jun-22 21:53 089 25.0
2018-Jun-22 21:43 088 25.0
2018-Jun-22 21:33 088 25.0
2018-Jun-22 21:24 088 25.0
2018-Jun-22 21:14 088 25.6
2018-Jun-22 21:04 088 25.6
2018-Jun-22 20:53 086 25.6
2018-Jun-22 20:43 087 25.6
2018-Jun-22 20:33 088 25.6
2018-Jun-22 20:23 088 25.6
2018-Jun-22 20:13 087 26.1
2018-Jun-22 20:04 087 26.1
2018-Jun-22 19:53 089 26.1
2018-Jun-22 19:43 088 26.1
2018-Jun-22 19:33 087 26.1
2018-Jun-22 19:23 088 0 gusting 5 26.1
2018-Jun-22 19:13 088 0 gusting 4 26.7
2018-Jun-22 19:03 133 26.7
2018-Jun-22 18:53 080 4 gusting 6 26.7
2018-Jun-22 18:43 099 27.2
2018-Jun-22 18:34 099 27.2
2018-Jun-22 18:24 098 27.2
2018-Jun-22 18:14 086 27.8
2018-Jun-22 18:04 089 0 gusting 7 27.8
2018-Jun-22 17:53 107 0 gusting 7 27.8
2018-Jun-22 17:43 067 2 gusting 7 27.8
2018-Jun-22 17:33 076 5 gusting 8 28.3
2018-Jun-22 17:23 086 1 gusting 7 28.3
2018-Jun-22 17:13 080 0 gusting 7 28.3
2018-Jun-22 17:03 085 3 gusting 8 28.9
2018-Jun-22 16:54 131 0 gusting 9 28.9
2018-Jun-22 16:43 094 2 gusting 8 28.9
2018-Jun-22 16:34 097 3 gusting 9 29.4
2018-Jun-22 16:23 113 3 gusting 7 28.9
2018-Jun-22 16:13 104 2 gusting 7 28.9
2018-Jun-22 16:03 098 2 gusting 8 29.4
2018-Jun-22 15:53 078 4 gusting 11 29.4
2018-Jun-22 15:43 100 4 gusting 8 29.4
2018-Jun-22 15:33 119 5 gusting 9 29.4
2018-Jun-22 15:24 111 2 gusting 11 29.4
2018-Jun-22 15:13 107 3 gusting 10 29.4
2018-Jun-22 15:04 180 1 gusting 9 30.0
2018-Jun-22 14:53 152 3 gusting 12 30.0
2018-Jun-22 14:43 134 3 gusting 10 30.6
2018-Jun-22 14:33 185 3 gusting 10 30.6
2018-Jun-22 14:23 096 3 gusting 7 30.6
2018-Jun-22 14:14 111 3 gusting 10 30.6
2018-Jun-22 14:04 104 2 gusting 9 30.6
2018-Jun-22 13:53 094 5 gusting 10 30.6
2018-Jun-22 13:43 115 5 gusting 12 30.6
2018-Jun-22 13:33 163 0 gusting 9 31.1
2018-Jun-22 13:23 150 6 gusting 13 31.1
2018-Jun-22 13:13 182 3 gusting 10 31.7
2018-Jun-22 13:03 153 3 gusting 11 31.1
2018-Jun-22 12:53 132 4 gusting 12 31.7
2018-Jun-22 12:43 121 4 gusting 10 31.7
2018-Jun-22 12:34 156 1 gusting 11 31.7
2018-Jun-22 12:24 149 3 gusting 15 31.7
2018-Jun-22 12:13 111 4 gusting 13 31.7
2018-Jun-22 12:04 163 2 gusting 11 31.7
2018-Jun-22 11:53 129 4 gusting 12 31.7
2018-Jun-22 11:43 152 3 gusting 11 31.7
2018-Jun-22 11:33 155 1 gusting 10 32.2
2018-Jun-22 11:23 144 6 gusting 12 32.2
2018-Jun-22 11:13 092 1 gusting 8 32.2
2018-Jun-22 11:03 087 1 gusting 8 32.2
2018-Jun-22 10:53 105 1 gusting 9 31.7
2018-Jun-22 10:43 136 3 gusting 10 31.7
2018-Jun-22 10:33 069 2 gusting 7 32.2
2018-Jun-22 10:23 113 2 gusting 6 31.7
2018-Jun-22 10:13 079 2 gusting 6 32.2
2018-Jun-22 10:03 088 2 gusting 6 32.8
2018-Jun-22 09:53 144 32.8
2018-Jun-22 09:43 167 32.8
2018-Jun-22 09:34 132 32.8
2018-Jun-22 09:24 128 32.8
2018-Jun-22 09:13 210 32.8
2018-Jun-22 09:04 210 32.2
2018-Jun-22 08:53 192 32.2
2018-Jun-22 08:43 203 31.7
2018-Jun-22 08:34 186 31.1
2018-Jun-22 08:23 188 30.6
2018-Jun-22 08:14 266 31.1
2018-Jun-22 08:04 267 30.6
2018-Jun-22 07:53 281 30.6
2018-Jun-22 07:43 283 30.0
2018-Jun-22 07:33 283 29.4
2018-Jun-22 07:23 283 29.4
2018-Jun-22 07:13 281 28.9
2018-Jun-22 07:03 284 28.3
2018-Jun-22 06:54 287 27.8
2018-Jun-22 06:43 287 27.2
2018-Jun-22 06:33 287 27.2
2018-Jun-22 06:23 288 27.2
2018-Jun-22 06:13 288 26.7
2018-Jun-22 06:03 287 26.1
2018-Jun-22 05:53 288 25.6
2018-Jun-22 05:44 288 24.4
2018-Jun-22 05:33 291 23.9
2018-Jun-22 05:23 283 23.3
2018-Jun-22 05:13 281 22.8
2018-Jun-22 05:03 284 22.2
2018-Jun-22 04:54 284 22.2
2018-Jun-22 04:43 283 22.2
2018-Jun-22 04:34 284 22.2
2018-Jun-22 04:23 283 22.2
2018-Jun-22 04:13 280 22.2
2018-Jun-22 04:03 279 0 gusting 5 22.2
2018-Jun-22 03:53 325 22.2
2018-Jun-22 03:43 325 22.2
2018-Jun-22 03:34 325 22.2
2018-Jun-22 03:23 325 22.2
2018-Jun-22 03:13 328 22.8
2018-Jun-22 03:03 321 1 gusting 5 22.2
2018-Jun-22 02:53 346 0 gusting 5 22.2
2018-Jun-22 02:44 330 22.2
2018-Jun-22 02:33 329 22.2
2018-Jun-22 02:23 333 0 gusting 5 22.2
2018-Jun-22 02:13 360 22.2
2018-Jun-22 02:03 360 22.2
2018-Jun-22 01:54 011 0 gusting 3 22.2
2018-Jun-22 01:44 136 22.2
2018-Jun-22 01:34 134 22.8
2018-Jun-22 01:23 136 22.8
2018-Jun-22 01:13 134 22.8
2018-Jun-22 01:03 135 22.8